Regional Weather Roundup
Issued by NWS

Home | Current Version | Previous Version | Graphics & Text | Print | Product List | Glossary On
Versions: 1 2 3 4 5 6 7 8 9 10 11 12 13 14 15 16 17 18 19 20 21 22 23 24 25 26 27 28 29 30 31 32 33 34 35 36 37 38 39 40 41 42 43 44 45 46 47 48 49 50
000
ASUS45 KCYS 011210
RWRWY

WYOMING REGIONAL WEATHER ROUNDUP
NATIONAL WEATHER SERVICE CHEYENNE WY
600 AM MDT WED APR 01 2015

NOTE:  "FAIR" INDICATES FEW OR NO CLOUDS BELOW 12,000 FEET
WITH NO SIGNIFICANT WEATHER AND/OR OBSTRUCTIONS TO VISIBILITY.

WYZ001-011300-
YELLOWSTONE NATIONAL PARK

CITY           SKY/WX    TMP DP  RH WIND       PRES   REMARKS
LK YELLOWSTONE NOT AVBL
W YELLOWSTONE  NOT AVBL

$$
WYZ002>013-054>058-071-098>099-011300-
NORTHERN WYOMING

CITY           SKY/WX    TMP DP  RH WIND       PRES   REMARKS
JACKSON        FAIR      32  16  51 SW13G23   29.90R WCI  22
CODY           FAIR      34  28  80 N8        29.76S WCI  27
GREYBULL       FAIR      46  29  51 NW22      29.68R
6HR MIN TEMP:  46; 6HR MAX TEMP:  59;

WORLAND        FAIR      46  32  58 NW17      29.70R
6HR MIN TEMP:  45; 6HR MAX TEMP:  57;

SHERIDAN       CLOUDY    46  33  60 N14       29.76R
6HR MIN TEMP:  46; 6HR MAX TEMP:  58;

BUFFALO        FAIR      42  35  76 N18G29    29.73R
6HR MIN TEMP:  42; 6HR MAX TEMP:  63;

GILLETTE       FAIR      46  35  65 NW17      29.70R
6HR MIN TEMP:  46; 6HR MAX TEMP:  63;

HULETT         FAIR      46  34  61 MISG      29.69S
NEWCASTLE      FAIR      52  27  37 NW18G25   29.61R

$$
WYZ014>020-022>026-101>103-011300-
CENTRAL WYOMING

CITY           SKY/WX    TMP DP  RH WIND       PRES   REMARKS
BIG PINEY      FAIR      29  15  56 N9        29.91R WCI  20
6HR MIN TEMP:  29; 6HR MAX TEMP:  40;

PINEDALE       FAIR      28  23  80 NW6       29.91R WCI  22
DUBOIS         FAIR      34  16  47 W24G33    29.78F WCI  21
LANDER         NOT AVBL
RIVERTON       FAIR      45  25  45 NW17      29.73R
6HR MIN TEMP:  45; 6HR MAX TEMP:  60;

CASPER         CLOUDY    48  22  35 SW8       29.70S
6HR MIN TEMP:  46; 6HR MAX TEMP:  51;

DOUGLAS        FAIR      46  23  40 N8        29.69R
6HR MIN TEMP:  43; 6HR MAX TEMP:  58;


$$
WYZ021-027>030-104>119-011300-
SOUTHERN WYOMING

CITY           SKY/WX    TMP DP  RH WIND       PRES   REMARKS
EVANSTON       FAIR      31  21  66 W14       30.00R WCI  21
6HR MIN TEMP:  31; 6HR MAX TEMP:  46;

FORT BRIDGER   FAIR      36  24  63 W18G24    30.00R WCI  25
ROCK SPRINGS   FAIR      41  27  57 W20       29.89R
6HR MIN TEMP:  41; 6HR MAX TEMP:  49;

DIXON          CLOUDY    40  26  57 CALM      29.89R
RAWLINS        FAIR      44  25  47 SW18      29.82S
6HR MIN TEMP:  43; 6HR MAX TEMP:  53;

SARATOGA       FAIR      43  23  45 SW8       29.85S
LARAMIE        FAIR      38  19  46 NW10      29.82R WCI  31
6HR MIN TEMP:  36; 6HR MAX TEMP:  44;

CHEYENNE       FAIR      51  20  29 W13       29.75R
6HR MIN TEMP:  44; 6HR MAX TEMP:  53;

TORRINGTON     FAIR      46  22  38 W3        29.63R
6HR MIN TEMP:  41; 6HR MAX TEMP:  56;

PINE BLUFFS    FAIR      37  23  56 SW3       29.71S

$$


USA.gov is the U.S. government's official web portal to all federal, state and local government web resources and services.